Time,TemperatureF,DewpointF,PressureIn,WindDirection,WindDirectionDegrees,WindSpeedMPH,WindSpeedGustMPH,Humidity,HourlyPrecipIn,Conditions,Clouds,dailyrainin,SoftwareType,DateUTC
2013-01-21 00:04:00,41.7,39.5,30.12,ESE,119,0.0,0.0,92,0.00,,---,0.00,VWS V14.01,2013-01-21 06:04:00,
2013-01-21 00:09:00,41.8,39.7,30.12,ESE,119,0.0,0.0,92,0.00,,---,0.00,VWS V14.01,2013-01-21 06:09:00,
2013-01-21 00:14:00,41.9,39.8,30.12,ESE,119,0.0,0.0,92,0.00,,---,0.00,VWS V14.01,2013-01-21 06:14:00,
2013-01-21 00:19:00,41.8,39.7,30.12,ESE,119,0.0,0.0,92,0.00,,---,0.00,VWS V14.01,2013-01-21 06:19:00,
2013-01-21 00:24:00,41.8,39.7,30.12,ESE,119,0.0,0.0,92,0.00,,---,0.00,VWS V14.01,2013-01-21 06:24:00,
2013-01-21 00:29:00,41.7,39.5,30.12,ESE,119,0.0,0.0,92,0.00,,---,0.00,VWS V14.01,2013-01-21 06:29:00,
2013-01-21 00:35:00,41.5,39.1,30.12,ESE,119,0.0,0.0,91,0.00,,---,0.00,VWS V14.01,2013-01-21 06:35:00,
2013-01-21 00:40:00,41.4,39.0,30.12,ESE,119,0.0,0.0,91,0.00,,---,0.00,VWS V14.01,2013-01-21 06:40:00,
2013-01-21 00:45:00,41.2,38.8,30.12,ESE,119,0.0,0.0,91,0.00,,---,0.00,VWS V14.01,2013-01-21 06:45:00,
2013-01-21 00:50:00,41.1,39.0,30.12,ESE,119,0.0,0.0,92,0.00,,---,0.00,VWS V14.01,2013-01-21 06:50:00,
2013-01-21 00:55:00,41.3,39.2,30.13,ESE,119,0.0,0.0,92,0.00,,---,0.00,VWS V14.01,2013-01-21 06:55:00,
2013-01-21 01:00:00,41.2,39.1,30.13,ESE,119,0.0,0.0,92,0.00,,---,0.00,VWS V14.01,2013-01-21 07:00:00,
2013-01-21 01:05:00,41.0,38.6,30.13,ESE,119,0.0,0.0,91,0.00,,---,0.00,VWS V14.01,2013-01-21 07:05:00,
2013-01-21 01:10:00,40.8,38.4,30.13,ESE,119,0.0,0.0,91,0.00,,---,0.00,VWS V14.01,2013-01-21 07:10:00,
2013-01-21 01:15:00,40.6,38.2,30.12,ESE,119,0.0,0.0,91,0.00,,---,0.00,VWS V14.01,2013-01-21 07:15:00,
2013-01-21 01:20:00,40.8,38.7,30.12,ESE,119,0.0,0.0,92,0.00,,---,0.00,VWS V14.01,2013-01-21 07:20:00,
2013-01-21 01:25:00,41.2,39.3,30.12,ESE,119,0.0,0.0,93,0.00,,---,0.00,VWS V14.01,2013-01-21 07:25:00,
2013-01-21 01:30:00,41.3,39.2,30.12,ESE,119,0.0,0.0,92,0.00,,---,0.00,VWS V14.01,2013-01-21 07:30:00,
2013-01-21 01:35:00,40.9,38.5,30.12,ESE,119,0.0,0.0,91,0.00,,---,0.00,VWS V14.01,2013-01-21 07:35:00,
2013-01-21 01:40:00,40.6,37.9,30.12,ESE,119,0.0,0.0,90,0.00,,---,0.00,VWS V14.01,2013-01-21 07:40:00,
2013-01-21 01:45:00,40.2,37.5,30.13,ESE,119,0.0,0.0,90,0.00,,---,0.00,VWS V14.01,2013-01-21 07:45:00,
2013-01-21 01:51:00,39.9,37.2,30.13,ESE,119,0.0,0.0,90,0.00,,---,0.00,VWS V14.01,2013-01-21 07:51:00,
2013-01-21 01:56:00,39.7,37.3,30.13,ESE,119,0.0,0.0,91,0.00,,---,0.00,VWS V14.01,2013-01-21 07:56:00,
2013-01-21 02:01:00,39.5,37.1,30.12,ESE,119,0.0,0.0,91,0.00,,---,0.00,VWS V14.01,2013-01-21 08:01:00,
2013-01-21 02:06:00,39.3,36.9,30.12,ESE,119,0.0,0.0,91,0.00,,---,0.00,VWS V14.01,2013-01-21 08:06:00,
2013-01-21 02:11:00,39.2,37.1,30.13,ESE,119,0.0,0.0,92,0.00,,---,0.00,VWS V14.01,2013-01-21 08:11:00,
2013-01-21 02:16:00,39.0,36.9,30.13,ESE,119,0.0,0.0,92,0.00,,---,0.00,VWS V14.01,2013-01-21 08:16:00,
2013-01-21 02:21:00,38.9,36.8,30.13,ESE,119,0.0,0.0,92,0.00,,---,0.00,VWS V14.01,2013-01-21 08:21:00,
2013-01-21 02:26:00,38.9,36.8,30.13,ESE,119,0.0,0.0,92,0.00,,---,0.00,VWS V14.01,2013-01-21 08:26:00,
2013-01-21 02:31:00,38.8,36.7,30.13,ESE,119,0.0,0.0,92,0.00,,---,0.00,VWS V14.01,2013-01-21 08:31:00,
2013-01-21 02:36:00,38.7,36.6,30.14,ESE,119,0.0,0.0,92,0.00,,---,0.00,VWS V14.01,2013-01-21 08:36:00,
2013-01-21 02:41:00,38.6,36.8,30.14,ESE,119,0.0,0.0,93,0.00,,---,0.00,VWS V14.01,2013-01-21 08:41:00,
2013-01-21 02:46:00,38.5,36.4,30.14,ESE,119,0.0,0.0,92,0.00,,---,0.00,VWS V14.01,2013-01-21 08:46:00,
2013-01-21 02:52:00,38.3,36.2,30.14,ESE,119,0.0,0.0,92,0.00,,---,0.00,VWS V14.01,2013-01-21 08:52:00,
2013-01-21 02:57:00,38.1,36.3,30.14,ESE,119,0.0,0.0,93,0.00,,---,0.00,VWS V14.01,2013-01-21 08:57:00,
2013-01-21 03:02:00,38.1,36.3,30.14,ESE,119,0.0,0.0,93,0.00,,---,0.00,VWS V14.01,2013-01-21 09:02:00,
2013-01-21 03:08:00,38.0,36.2,30.14,ESE,119,0.0,0.0,93,0.00,,---,0.00,VWS V14.01,2013-01-21 09:08:00,
2013-01-21 03:13:00,37.9,36.1,30.14,ESE,119,0.0,0.0,93,0.00,,---,0.00,VWS V14.01,2013-01-21 09:13:00,
2013-01-21 03:18:00,38.0,36.4,30.15,ESE,119,0.0,0.0,94,0.00,,---,0.00,VWS V14.01,2013-01-21 09:18:00,
2013-01-21 03:23:00,38.1,36.5,30.15,ESE,119,0.0,0.0,94,0.00,,---,0.00,VWS V14.01,2013-01-21 09:23:00,
2013-01-21 03:28:00,38.1,36.5,30.14,ESE,119,0.0,0.0,94,0.00,,---,0.00,VWS V14.01,2013-01-21 09:28:00,
2013-01-21 03:33:00,38.2,36.6,30.14,ESE,119,1.0,1.0,94,0.00,,---,0.00,VWS V14.01,2013-01-21 09:33:00,
2013-01-21 03:38:00,38.3,36.7,30.15,NNW,333,2.0,4.0,94,0.00,,---,0.00,VWS V14.01,2013-01-21 09:38:00,
2013-01-21 03:43:00,39.1,37.8,30.15,North,5,0.0,4.0,95,0.00,,---,0.00,VWS V14.01,2013-01-21 09:43:00,
2013-01-21 03:48:00,39.1,37.8,30.15,North,5,0.0,2.0,95,0.00,,---,0.00,VWS V14.01,2013-01-21 09:48:00,
2013-01-21 03:53:00,39.2,37.9,30.14,North,5,0.0,0.0,95,0.00,,---,0.00,VWS V14.01,2013-01-21 09:53:00,
2013-01-21 03:58:00,39.8,38.5,30.14,North,360,2.0,3.0,95,0.00,,---,0.00,VWS V14.01,2013-01-21 09:58:00,
2013-01-21 04:03:00,40.6,39.5,30.14,NNW,340,0.0,4.0,96,0.00,,---,0.00,VWS V14.01,2013-01-21 10:03:00,
2013-01-21 04:08:00,41.0,40.0,30.14,NNW,334,3.0,5.0,96,0.00,,---,0.00,VWS V14.01,2013-01-21 10:08:00,
2013-01-21 04:13:00,41.7,40.7,30.14,NNE,29,4.0,5.0,96,0.00,,---,0.00,VWS V14.01,2013-01-21 10:13:00,
2013-01-21 04:18:00,42.2,41.1,30.14,North,360,2.0,3.0,96,0.00,,---,0.00,VWS V14.01,2013-01-21 10:18:00,
2013-01-21 04:23:00,42.4,41.1,30.14,NNE,20,2.0,4.0,95,0.00,,---,0.00,VWS V14.01,2013-01-21 10:23:00,
2013-01-21 04:28:00,42.6,41.3,30.15,North,350,0.0,7.0,95,0.00,,---,0.00,VWS V14.01,2013-01-21 10:28:00,
2013-01-21 04:33:00,42.9,41.3,30.15,NNE,14,5.0,7.0,94,0.00,,---,0.00,VWS V14.01,2013-01-21 10:33:00,
2013-01-21 04:38:00,43.2,41.3,30.15,North,360,4.0,8.0,93,0.00,,---,0.00,VWS V14.01,2013-01-21 10:38:00,
2013-01-21 04:43:00,43.3,41.1,30.15,North,5,2.0,6.0,92,0.00,,---,0.00,VWS V14.01,2013-01-21 10:43:00,
2013-01-21 04:48:00,43.3,40.8,30.15,North,9,2.0,6.0,91,0.00,,---,0.00,VWS V14.01,2013-01-21 10:48:00,
2013-01-21 04:53:00,43.2,40.5,30.16,North,5,5.0,11.0,90,0.00,,---,0.00,VWS V14.01,2013-01-21 10:53:00,
2013-01-21 04:59:00,43.1,40.1,30.16,North,360,0.0,10.0,89,0.00,,---,0.00,VWS V14.01,2013-01-21 10:59:00,
2013-01-21 05:04:00,43.0,39.7,30.16,North,11,1.0,8.0,88,0.00,,---,0.00,VWS V14.01,2013-01-21 11:04:00,
2013-01-21 05:09:00,42.9,39.6,30.17,NNW,336,2.0,6.0,88,0.00,,---,0.00,VWS V14.01,2013-01-21 11:09:00,
2013-01-21 05:14:00,42.7,39.1,30.17,North,355,0.0,6.0,87,0.00,,---,0.00,VWS V14.01,2013-01-21 11:14:00,
2013-01-21 05:19:00,42.5,38.9,30.17,NNW,341,3.0,6.0,87,0.00,,---,0.00,VWS V14.01,2013-01-21 11:19:00,
2013-01-21 05:24:00,42.3,38.1,30.17,North,9,2.0,5.0,85,0.00,,---,0.00,VWS V14.01,2013-01-21 11:24:00,
2013-01-21 05:29:00,41.9,37.1,30.17,NNW,340,3.0,6.0,83,0.00,,---,0.00,VWS V14.01,2013-01-21 11:29:00,
2013-01-21 05:34:00,41.8,36.4,30.17,North,351,2.0,6.0,81,0.00,,---,0.00,VWS V14.01,2013-01-21 11:34:00,
2013-01-21 05:39:00,41.4,36.0,30.18,North,360,0.0,3.0,81,0.00,,---,0.00,VWS V14.01,2013-01-21 11:39:00,
2013-01-21 05:44:00,41.0,35.9,30.18,North,360,0.0,3.0,82,0.00,,---,0.00,VWS V14.01,2013-01-21 11:44:00,
2013-01-21 05:49:00,40.7,35.6,30.18,NNW,344,0.0,4.0,82,0.00,,---,0.00,VWS V14.01,2013-01-21 11:49:00,
2013-01-21 05:54:00,40.6,34.9,30.19,North,5,11.0,11.0,80,0.00,,---,0.00,VWS V14.01,2013-01-21 11:54:00,
2013-01-21 05:59:00,40.4,34.7,30.19,North,5,3.0,4.0,80,0.00,,---,0.00,VWS V14.01,2013-01-21 11:59:00,
2013-01-21 06:04:00,40.1,34.1,30.19,NNE,15,0.0,7.0,79,0.00,,---,0.00,VWS V14.01,2013-01-21 12:04:00,
2013-01-21 06:09:00,40.0,33.7,30.19,North,5,2.0,6.0,78,0.00,,---,0.00,VWS V14.01,2013-01-21 12:09:00,
2013-01-21 06:14:00,39.7,33.4,30.20,NNE,13,2.0,5.0,78,0.00,,---,0.00,VWS V14.01,2013-01-21 12:14:00,
2013-01-21 06:20:00,39.4,33.1,30.20,North,5,0.0,0.0,78,0.00,,---,0.00,VWS V14.01,2013-01-21 12:20:00,
2013-01-21 06:25:00,39.2,32.9,30.20,North,351,0.0,1.0,78,0.00,,---,0.00,VWS V14.01,2013-01-21 12:25:00,
2013-01-21 06:30:00,39.0,32.7,30.20,North,9,4.0,6.0,78,0.00,,---,0.00,VWS V14.01,2013-01-21 12:30:00,
2013-01-21 06:35:00,38.9,32.3,30.21,NNE,22,1.0,7.0,77,0.00,,---,0.00,VWS V14.01,2013-01-21 12:35:00,
2013-01-21 06:40:00,38.7,31.8,30.21,North,5,0.0,4.0,76,0.00,,---,0.00,VWS V14.01,2013-01-21 12:40:00,
2013-01-21 06:45:00,38.5,31.6,30.21,North,360,2.0,5.0,76,0.00,,---,0.00,VWS V14.01,2013-01-21 12:45:00,
2013-01-21 06:50:00,38.3,31.1,30.21,North,351,2.0,5.0,75,0.00,,---,0.00,VWS V14.01,2013-01-21 12:50:00,
2013-01-21 06:55:00,38.2,31.0,30.22,North,355,0.0,0.0,75,0.00,,---,0.00,VWS V14.01,2013-01-21 12:55:00,
2013-01-21 07:00:00,38.0,30.8,30.22,North,355,0.0,3.0,75,0.00,,---,0.00,VWS V14.01,2013-01-21 13:00:00,
2013-01-21 07:05:00,37.9,30.7,30.22,North,9,0.0,5.0,75,0.00,,---,0.00,VWS V14.01,2013-01-21 13:05:00,
2013-01-21 07:10:00,37.7,30.5,30.22,NNW,346,0.0,6.0,75,0.00,,---,0.00,VWS V14.01,2013-01-21 13:10:00,
2013-01-21 07:15:00,37.6,30.4,30.22,NNW,327,0.0,4.0,75,0.00,,---,0.00,VWS V14.01,2013-01-21 13:15:00,
2013-01-21 07:20:00,37.5,30.0,30.22,North,355,0.0,6.0,74,0.00,,---,0.00,VWS V14.01,2013-01-21 13:20:00,
2013-01-21 07:25:00,37.4,30.2,30.22,NNW,328,1.0,4.0,75,0.00,,---,0.00,VWS V14.01,2013-01-21 13:25:00,
2013-01-21 07:30:00,37.4,29.9,30.22,NNW,337,1.0,7.0,74,0.00,,---,0.00,VWS V14.01,2013-01-21 13:30:00,
2013-01-21 07:35:00,37.5,29.6,30.23,North,355,3.0,7.0,73,0.00,,---,0.00,VWS V14.01,2013-01-21 13:35:00,
2013-01-21 07:40:00,37.5,29.3,30.23,North,355,3.0,7.0,72,0.00,,---,0.00,VWS V14.01,2013-01-21 13:40:00,
2013-01-21 07:45:00,37.6,29.4,30.24,North,11,5.0,5.0,72,0.00,,---,0.00,VWS V14.01,2013-01-21 13:45:00,
2013-01-21 07:50:00,37.7,29.2,30.24,North,11,0.0,8.0,71,0.00,,---,0.00,VWS V14.01,2013-01-21 13:50:00,
2013-01-21 07:55:00,37.9,29.0,30.24,NNE,25,0.0,7.0,70,0.00,,---,0.00,VWS V14.01,2013-01-21 13:55:00,
2013-01-21 08:01:00,38.2,29.3,30.24,NW,322,3.0,3.0,70,0.00,,---,0.00,VWS V14.01,2013-01-21 14:01:00,
2013-01-21 08:06:00,38.5,29.9,30.24,North,351,0.0,3.0,71,0.00,,---,0.00,VWS V14.01,2013-01-21 14:06:00,
2013-01-21 08:11:00,38.8,29.5,30.24,NW,325,0.0,4.0,69,0.00,,---,0.00,VWS V14.01,2013-01-21 14:11:00,
2013-01-21 08:16:00,39.1,29.8,30.25,North,360,3.0,6.0,69,0.00,,---,0.00,VWS V14.01,2013-01-21 14:16:00,
2013-01-21 08:21:00,39.5,29.5,30.25,NNW,348,0.0,5.0,67,0.00,,---,0.00,VWS V14.01,2013-01-21 14:21:00,
2013-01-21 08:26:00,39.7,28.9,30.25,North,11,0.0,6.0,65,0.00,,---,0.00,VWS V14.01,2013-01-21 14:26:00,
2013-01-21 08:31:00,39.6,28.8,30.25,NNE,16,5.0,6.0,65,0.00,,---,0.00,VWS V14.01,2013-01-21 14:31:00,
2013-01-21 08:36:00,39.8,28.6,30.25,NNE,18,8.0,8.0,64,0.00,,---,0.00,VWS V14.01,2013-01-21 14:36:00,
2013-01-21 08:41:00,39.9,28.3,30.26,NNW,347,1.0,11.0,63,0.00,,---,0.00,VWS V14.01,2013-01-21 14:41:00,
2013-01-21 08:47:00,40.0,28.4,30.26,North,5,5.0,9.0,63,0.00,,---,0.00,VWS V14.01,2013-01-21 14:47:00,
2013-01-21 08:52:00,40.2,28.6,30.26,NNW,343,0.0,10.0,63,0.00,,---,0.00,VWS V14.01,2013-01-21 14:52:00,
2013-01-21 08:57:00,40.9,29.3,30.26,NNW,344,0.0,5.0,63,0.00,,---,0.00,VWS V14.01,2013-01-21 14:57:00,
2013-01-21 09:02:00,41.3,28.5,30.26,NNE,15,7.0,8.0,60,0.00,,---,0.00,VWS V14.01,2013-01-21 15:02:00,
2013-01-21 09:07:00,41.0,28.2,30.27,North,360,5.0,10.0,60,0.00,,---,0.00,VWS V14.01,2013-01-21 15:07:00,
2013-01-21 09:12:00,41.5,29.1,30.27,NNE,16,5.0,5.0,61,0.00,,---,0.00,VWS V14.01,2013-01-21 15:12:00,
2013-01-21 09:17:00,41.8,28.5,30.27,North,5,4.0,5.0,59,0.00,,---,0.00,VWS V14.01,2013-01-21 15:17:00,
2013-01-21 09:22:00,42.1,28.8,30.27,North,360,7.0,9.0,59,0.00,,---,0.00,VWS V14.01,2013-01-21 15:22:00,
2013-01-21 09:27:00,42.2,28.5,30.27,North,355,3.0,9.0,58,0.00,,---,0.00,VWS V14.01,2013-01-21 15:27:00,
2013-01-21 09:32:00,42.2,28.1,30.27,North,5,8.0,9.0,57,0.00,,---,0.00,VWS V14.01,2013-01-21 15:32:00,
2013-01-21 09:37:00,42.4,28.7,30.27,NNW,346,3.0,13.0,58,0.00,,---,0.00,VWS V14.01,2013-01-21 15:37:00,
2013-01-21 09:43:00,42.9,28.7,30.27,NNW,338,4.0,9.0,57,0.00,,---,0.00,VWS V14.01,2013-01-21 15:43:00,
2013-01-21 09:48:00,42.9,28.7,30.27,NNW,348,6.0,11.0,57,0.00,,---,0.00,VWS V14.01,2013-01-21 15:48:00,
2013-01-21 09:53:00,43.3,28.7,30.27,NNE,12,9.0,10.0,56,0.00,,---,0.00,VWS V14.01,2013-01-21 15:53:00,
2013-01-21 09:58:00,43.5,28.9,30.28,NNE,13,4.0,9.0,56,0.00,,---,0.00,VWS V14.01,2013-01-21 15:58:00,
2013-01-21 10:03:00,44.1,29.0,30.28,North,360,3.0,7.0,55,0.00,,---,0.00,VWS V14.01,2013-01-21 16:03:00,
2013-01-21 10:08:00,44.2,28.6,30.28,North,5,3.0,13.0,54,0.00,,---,0.00,VWS V14.01,2013-01-21 16:08:00,
2013-01-21 10:13:00,44.0,28.9,30.29,NNE,24,7.0,13.0,55,0.00,,---,0.00,VWS V14.01,2013-01-21 16:13:00,
2013-01-21 10:18:00,43.9,28.8,30.29,NNE,15,4.0,13.0,55,0.00,,---,0.00,VWS V14.01,2013-01-21 16:18:00,
2013-01-21 10:23:00,45.1,29.9,30.30,NNW,344,3.0,7.0,55,0.00,,---,0.00,VWS V14.01,2013-01-21 16:23:00,
2013-01-21 10:28:00,45.7,30.0,30.30,North,5,4.0,9.0,54,0.00,,---,0.00,VWS V14.01,2013-01-21 16:28:00,
2013-01-21 10:33:00,45.3,29.2,30.30,North,355,7.0,9.0,53,0.00,,---,0.00,VWS V14.01,2013-01-21 16:33:00,
2013-01-21 10:39:00,45.4,29.7,30.30,NNW,343,4.0,12.0,54,0.00,,---,0.00,VWS V14.01,2013-01-21 16:39:00,
2013-01-21 10:44:00,46.1,29.5,30.30,North,5,6.0,11.0,52,0.00,,---,0.00,VWS V14.01,2013-01-21 16:44:00,
2013-01-21 10:49:00,46.4,29.8,30.30,North,11,3.0,14.0,52,0.00,,---,0.00,VWS V14.01,2013-01-21 16:49:00,
2013-01-21 10:54:00,46.7,29.5,30.30,NW,321,5.0,10.0,51,0.00,,---,0.00,VWS V14.01,2013-01-21 16:54:00,
2013-01-21 10:59:00,47.1,29.9,30.30,North,11,4.0,7.0,51,0.00,,---,0.00,VWS V14.01,2013-01-21 16:59:00,
2013-01-21 11:04:00,47.1,29.9,30.30,NE,34,7.0,9.0,51,0.00,,---,0.00,VWS V14.01,2013-01-21 17:04:00,
2013-01-21 11:09:00,47.5,30.8,30.30,NW,325,3.0,9.0,52,0.00,,---,0.00,VWS V14.01,2013-01-21 17:09:00,
2013-01-21 11:14:00,47.9,31.1,30.30,NNW,343,3.0,4.0,52,0.00,,---,0.00,VWS V14.01,2013-01-21 17:14:00,
2013-01-21 11:19:00,48.3,30.5,30.30,NNW,338,6.0,10.0,50,0.00,,---,0.00,VWS V14.01,2013-01-21 17:19:00,
2013-01-21 11:24:00,48.0,30.3,30.30,NNE,15,9.0,9.0,50,0.00,,---,0.00,VWS V14.01,2013-01-21 17:24:00,
2013-01-21 11:29:00,47.4,30.7,30.30,NNE,28,6.0,9.0,52,0.00,,---,0.00,VWS V14.01,2013-01-21 17:29:00,
2013-01-21 11:35:00,47.6,31.3,30.30,NNE,24,1.0,11.0,53,0.00,,---,0.00,VWS V14.01,2013-01-21 17:35:00,
2013-01-21 11:40:00,48.2,31.4,30.29,NNE,23,8.0,9.0,52,0.00,,---,0.00,VWS V14.01,2013-01-21 17:40:00,
2013-01-21 11:45:00,48.4,32.1,30.29,North,5,4.0,8.0,53,0.00,,---,0.00,VWS V14.01,2013-01-21 17:45:00,
2013-01-21 11:50:00,48.8,32.0,30.29,NNE,17,5.0,15.0,52,0.00,,---,0.00,VWS V14.01,2013-01-21 17:50:00,
2013-01-21 11:55:00,49.1,32.7,30.29,NNE,22,2.0,10.0,53,0.00,,---,0.00,VWS V14.01,2013-01-21 17:55:00,
2013-01-21 12:00:00,49.7,32.3,30.29,NNE,25,7.0,11.0,51,0.00,,---,0.00,VWS V14.01,2013-01-21 18:00:00,
2013-01-21 12:05:00,49.0,32.6,30.28,NE,36,9.0,10.0,53,0.00,,---,0.00,VWS V14.01,2013-01-21 18:05:00,
2013-01-21 12:10:00,49.5,32.6,30.28,NNE,26,7.0,10.0,52,0.00,,---,0.00,VWS V14.01,2013-01-21 18:10:00,
2013-01-21 12:16:00,49.9,33.0,30.28,NNW,341,3.0,10.0,52,0.00,,---,0.00,VWS V14.01,2013-01-21 18:16:00,
2013-01-21 12:21:00,49.7,32.8,30.27,North,349,2.0,8.0,52,0.00,,---,0.00,VWS V14.01,2013-01-21 18:21:00,
2013-01-21 12:26:00,50.2,33.3,30.27,NNE,18,5.0,10.0,52,0.00,,---,0.00,VWS V14.01,2013-01-21 18:26:00,
2013-01-21 12:31:00,50.5,33.5,30.27,North,355,6.0,11.0,52,0.00,,---,0.00,VWS V14.01,2013-01-21 18:31:00,
2013-01-21 12:36:00,50.2,33.3,30.26,NNE,30,4.0,6.0,52,0.00,,---,0.00,VWS V14.01,2013-01-21 18:36:00,
2013-01-21 12:41:00,51.1,33.6,30.26,North,10,6.0,8.0,51,0.00,,---,0.00,VWS V14.01,2013-01-21 18:41:00,
2013-01-21 12:46:00,51.8,34.3,30.26,North,5,9.0,9.0,51,0.00,,---,0.00,VWS V14.01,2013-01-21 18:46:00,
2013-01-21 12:51:00,51.9,34.4,30.26,North,350,2.0,8.0,51,0.00,,---,0.00,VWS V14.01,2013-01-21 18:51:00,
2013-01-21 12:56:00,52.0,34.0,30.25,NNE,19,9.0,10.0,50,0.00,,---,0.00,VWS V14.01,2013-01-21 18:56:00,
2013-01-21 13:01:00,51.4,34.4,30.25,NNW,338,2.0,8.0,52,0.00,,---,0.00,VWS V14.01,2013-01-21 19:01:00,
2013-01-21 13:06:00,52.1,34.0,30.25,NNE,25,9.0,11.0,50,0.00,,---,0.00,VWS V14.01,2013-01-21 19:06:00,
2013-01-21 13:11:00,51.9,34.4,30.25,NNE,30,10.0,10.0,51,0.00,,---,0.00,VWS V14.01,2013-01-21 19:11:00,
2013-01-21 13:16:00,52.4,34.8,30.25,NNE,21,4.0,8.0,51,0.00,,---,0.00,VWS V14.01,2013-01-21 19:16:00,
2013-01-21 13:22:00,52.6,34.5,30.25,North,355,3.0,9.0,50,0.00,,---,0.00,VWS V14.01,2013-01-21 19:22:00,
2013-01-21 13:27:00,53.2,35.1,30.24,NNE,29,6.0,6.0,50,0.00,,---,0.00,VWS V14.01,2013-01-21 19:27:00,
2013-01-21 13:31:00,53.4,35.2,30.24,NNW,338,0.0,7.0,50,0.00,,---,0.00,VWS V14.01,2013-01-21 19:31:00,
2013-01-21 13:37:00,53.4,35.2,30.24,NNE,24,2.0,10.0,50,0.00,,---,0.00,VWS V14.01,2013-01-21 19:37:00,
2013-01-21 13:42:00,53.3,35.2,30.24,NNE,16,5.0,8.0,50,0.00,,---,0.00,VWS V14.01,2013-01-21 19:42:00,
2013-01-21 13:47:00,53.1,35.0,30.24,NE,36,2.0,6.0,50,0.00,,---,0.00,VWS V14.01,2013-01-21 19:47:00,
2013-01-21 13:52:00,53.1,35.5,30.24,NNW,336,0.0,7.0,51,0.00,,---,0.00,VWS V14.01,2013-01-21 19:52:00,
2013-01-21 13:57:00,53.9,35.7,30.24,North,355,7.0,10.0,50,0.00,,---,0.00,VWS V14.01,2013-01-21 19:57:00,
2013-01-21 14:02:00,54.3,35.0,30.24,NW,326,3.0,4.0,48,0.00,,---,0.00,VWS V14.01,2013-01-21 20:02:00,
2013-01-21 14:07:00,54.6,35.8,30.24,North,350,5.0,8.0,49,0.00,,---,0.00,VWS V14.01,2013-01-21 20:07:00,
2013-01-21 14:12:00,55.2,35.3,30.24,NW,321,1.0,5.0,47,0.00,,---,0.00,VWS V14.01,2013-01-21 20:12:00,
2013-01-21 14:17:00,55.6,36.2,30.24,NNE,23,6.0,6.0,48,0.00,,---,0.00,VWS V14.01,2013-01-21 20:17:00,
2013-01-21 14:22:00,55.5,36.2,30.24,NW,320,3.0,4.0,48,0.00,,---,0.00,VWS V14.01,2013-01-21 20:22:00,
2013-01-21 14:28:00,55.4,36.6,30.24,North,355,3.0,9.0,49,0.00,,---,0.00,VWS V14.01,2013-01-21 20:28:00,
2013-01-21 14:33:00,55.9,36.5,30.24,NNW,330,3.0,7.0,48,0.00,,---,0.00,VWS V14.01,2013-01-21 20:33:00,
2013-01-21 14:38:00,56.2,37.3,30.24,NNE,25,10.0,10.0,49,0.00,,---,0.00,VWS V14.01,2013-01-21 20:38:00,
2013-01-21 14:43:00,55.7,36.8,30.23,NNE,28,6.0,9.0,49,0.00,,---,0.00,VWS V14.01,2013-01-21 20:43:00,
2013-01-21 14:48:00,55.8,36.9,30.23,NNW,337,3.0,6.0,49,0.00,,---,0.00,VWS V14.01,2013-01-21 20:48:00,
2013-01-21 14:53:00,55.8,36.9,30.23,North,10,3.0,6.0,49,0.00,,---,0.00,VWS V14.01,2013-01-21 20:53:00,
2013-01-21 14:58:00,55.7,37.4,30.23,North,355,5.0,8.0,50,0.00,,---,0.00,VWS V14.01,2013-01-21 20:58:00,
2013-01-21 15:03:00,55.7,37.4,30.23,NNE,13,4.0,4.0,50,0.00,,---,0.00,VWS V14.01,2013-01-21 21:03:00,
2013-01-21 15:08:00,55.8,36.9,30.23,NW,324,3.0,8.0,49,0.00,,---,0.00,VWS V14.01,2013-01-21 21:08:00,
2013-01-21 15:13:00,56.2,37.3,30.23,NNW,327,4.0,6.0,49,0.00,,---,0.00,VWS V14.01,2013-01-21 21:13:00,
2013-01-21 15:18:00,56.7,37.8,30.23,NNW,328,2.0,8.0,49,0.00,,---,0.00,VWS V14.01,2013-01-21 21:18:00,
2013-01-21 15:23:00,57.0,37.5,30.22,North,351,5.0,7.0,48,0.00,,---,0.00,VWS V14.01,2013-01-21 21:23:00,
2013-01-21 15:28:00,56.8,37.9,30.22,NNE,29,6.0,10.0,49,0.00,,---,0.00,VWS V14.01,2013-01-21 21:28:00,
2013-01-21 15:33:00,56.9,38.0,30.22,NNW,327,3.0,5.0,49,0.00,,---,0.00,VWS V14.01,2013-01-21 21:33:00,
2013-01-21 15:38:00,57.0,37.5,30.22,NNW,340,2.0,7.0,48,0.00,,---,0.00,VWS V14.01,2013-01-21 21:38:00,
2013-01-21 15:43:00,57.3,37.8,30.22,NNE,20,1.0,6.0,48,0.00,,---,0.00,VWS V14.01,2013-01-21 21:43:00,
2013-01-21 15:49:00,57.5,38.0,30.22,North,5,10.0,11.0,48,0.00,,---,0.00,VWS V14.01,2013-01-21 21:49:00,
2013-01-21 15:54:00,57.1,37.6,30.22,NNE,20,4.0,7.0,48,0.00,,---,0.00,VWS V14.01,2013-01-21 21:54:00,
2013-01-21 15:59:00,56.9,37.4,30.22,NNW,331,0.0,4.0,48,0.00,,---,0.00,VWS V14.01,2013-01-21 21:59:00,
2013-01-21 16:04:00,57.0,37.5,30.22,NNE,30,8.0,8.0,48,0.00,,---,0.00,VWS V14.01,2013-01-21 22:04:00,
2013-01-21 16:09:00,56.5,37.6,30.22,NNE,27,7.0,8.0,49,0.00,,---,0.00,VWS V14.01,2013-01-21 22:09:00,
2013-01-21 16:14:00,56.3,37.4,30.22,NNE,24,2.0,4.0,49,0.00,,---,0.00,VWS V14.01,2013-01-21 22:14:00,
2013-01-21 16:19:00,56.3,37.4,30.22,NNE,32,9.0,11.0,49,0.00,,---,0.00,VWS V14.01,2013-01-21 22:19:00,
2013-01-21 16:24:00,56.3,37.4,30.22,North,360,4.0,4.0,49,0.00,,---,0.00,VWS V14.01,2013-01-21 22:24:00,
2013-01-21 16:29:00,56.3,37.4,30.22,NNE,29,4.0,6.0,49,0.00,,---,0.00,VWS V14.01,2013-01-21 22:29:00,
2013-01-21 16:34:00,56.1,37.2,30.21,North,10,4.0,8.0,49,0.00,,---,0.00,VWS V14.01,2013-01-21 22:34:00,
2013-01-21 16:39:00,55.9,37.5,30.21,NNE,29,4.0,5.0,50,0.00,,---,0.00,VWS V14.01,2013-01-21 22:39:00,
2013-01-21 16:44:00,56.0,37.6,30.21,NE,37,4.0,6.0,50,0.00,,---,0.00,VWS V14.01,2013-01-21 22:44:00,
2013-01-21 16:49:00,55.9,37.5,30.21,North,11,4.0,7.0,50,0.00,,---,0.00,VWS V14.01,2013-01-21 22:49:00,
2013-01-21 16:54:00,55.7,37.4,30.21,NNE,17,4.0,5.0,50,0.00,,---,0.00,VWS V14.01,2013-01-21 22:54:00,
2013-01-21 16:59:00,55.4,37.6,30.21,NNE,20,4.0,5.0,51,0.00,,---,0.00,VWS V14.01,2013-01-21 22:59:00,
2013-01-21 17:04:00,55.2,37.4,30.21,NNE,14,5.0,9.0,51,0.00,,---,0.00,VWS V14.01,2013-01-21 23:04:00,
2013-01-21 17:09:00,55.0,37.2,30.21,North,360,2.0,5.0,51,0.00,,---,0.00,VWS V14.01,2013-01-21 23:09:00,
2013-01-21 17:15:00,54.7,36.4,30.21,NNE,33,3.0,4.0,50,0.00,,---,0.00,VWS V14.01,2013-01-21 23:15:00,
2013-01-21 17:20:00,54.4,36.7,30.21,NNE,16,3.0,6.0,51,0.00,,---,0.00,VWS V14.01,2013-01-21 23:20:00,
2013-01-21 17:25:00,54.2,36.5,30.21,NNE,16,0.0,2.0,51,0.00,,---,0.00,VWS V14.01,2013-01-21 23:25:00,
2013-01-21 17:30:00,54.0,36.3,30.21,NNE,16,0.0,1.0,51,0.00,,---,0.00,VWS V14.01,2013-01-21 23:30:00,
2013-01-21 17:35:00,53.8,36.1,30.21,NNE,16,0.0,1.0,51,0.00,,---,0.00,VWS V14.01,2013-01-21 23:35:00,
2013-01-21 17:40:00,53.5,36.3,30.21,NNE,16,2.0,2.0,52,0.00,,---,0.00,VWS V14.01,2013-01-21 23:40:00,
2013-01-21 17:45:00,53.2,36.0,30.21,NNE,16,0.0,0.0,52,0.00,,---,0.00,VWS V14.01,2013-01-21 23:45:00,
2013-01-21 17:50:00,53.0,36.3,30.21,NNE,16,0.0,0.0,53,0.00,,---,0.00,VWS V14.01,2013-01-21 23:50:00,
2013-01-21 17:55:00,52.8,36.2,30.21,NNE,16,0.0,1.0,53,0.00,,---,0.00,VWS V14.01,2013-01-21 23:55:00,
2013-01-21 18:00:00,52.6,36.0,30.21,NNE,16,0.0,0.0,53,0.00,,---,0.00,VWS V14.01,2013-01-22 00:00:00,
2013-01-21 18:05:00,52.3,36.2,30.22,NNE,16,0.0,0.0,54,0.00,,---,0.00,VWS V14.01,2013-01-22 00:05:00,
2013-01-21 18:10:00,52.0,35.9,30.22,NNE,15,1.0,1.0,54,0.00,,---,0.00,VWS V14.01,2013-01-22 00:10:00,
2013-01-21 18:15:00,51.8,35.7,30.22,NNE,15,0.0,1.0,54,0.00,,---,0.00,VWS V14.01,2013-01-22 00:15:00,
2013-01-21 18:21:00,51.5,35.9,30.22,NNE,15,0.0,0.0,55,0.00,,---,0.00,VWS V14.01,2013-01-22 00:21:00,
2013-01-21 18:26:00,50.8,35.7,30.21,NNE,15,0.0,0.0,56,0.00,,---,0.00,VWS V14.01,2013-01-22 00:26:00,
2013-01-21 18:31:00,50.1,35.9,30.21,NNE,15,0.0,0.0,58,0.00,,---,0.00,VWS V14.01,2013-01-22 00:31:00,
2013-01-21 18:36:00,49.7,36.0,30.21,NNE,15,0.0,0.0,59,0.00,,---,0.00,VWS V14.01,2013-01-22 00:36:00,
2013-01-21 18:41:00,49.4,36.1,30.22,NNE,15,0.0,0.0,60,0.00,,---,0.00,VWS V14.01,2013-01-22 00:41:00,
2013-01-21 18:46:00,49.2,35.9,30.22,NNE,15,0.0,0.0,60,0.00,,---,0.00,VWS V14.01,2013-01-22 00:46:00,
2013-01-21 18:51:00,48.9,36.1,30.22,NNE,15,0.0,0.0,61,0.00,,---,0.00,VWS V14.01,2013-01-22 00:51:00,
2013-01-21 18:56:00,48.5,35.7,30.22,NNE,15,0.0,0.0,61,0.00,,---,0.00,VWS V14.01,2013-01-22 00:56:00,
2013-01-21 19:01:00,47.9,35.5,30.22,NNE,15,0.0,0.0,62,0.00,,---,0.00,VWS V14.01,2013-01-22 01:01:00,
2013-01-21 19:06:00,47.4,35.5,30.22,NNE,15,0.0,0.0,63,0.00,,---,0.00,VWS V14.01,2013-01-22 01:06:00,
2013-01-21 19:11:00,47.0,35.5,30.22,NNE,15,0.0,0.0,64,0.00,,---,0.00,VWS V14.01,2013-01-22 01:11:00,
2013-01-21 19:16:00,46.3,35.6,30.22,NNE,15,0.0,0.0,66,0.00,,---,0.00,VWS V14.01,2013-01-22 01:16:00,
2013-01-21 19:21:00,45.7,35.4,30.22,NNE,13,0.0,2.0,67,0.00,,---,0.00,VWS V14.01,2013-01-22 01:21:00,
2013-01-21 19:27:00,45.1,34.4,30.22,NNE,13,0.0,0.0,66,0.00,,---,0.00,VWS V14.01,2013-01-22 01:27:00,
2013-01-21 19:32:00,44.7,34.8,30.22,NNE,13,0.0,0.0,68,0.00,,---,0.00,VWS V14.01,2013-01-22 01:32:00,
2013-01-21 19:37:00,44.3,34.4,30.22,NNE,13,0.0,0.0,68,0.00,,---,0.00,VWS V14.01,2013-01-22 01:37:00,
2013-01-21 19:42:00,44.1,34.6,30.22,NNE,13,0.0,0.0,69,0.00,,---,0.00,VWS V14.01,2013-01-22 01:42:00,
2013-01-21 19:47:00,44.0,34.5,30.22,NNE,13,0.0,0.0,69,0.00,,---,0.00,VWS V14.01,2013-01-22 01:47:00,
2013-01-21 19:52:00,44.0,34.1,30.22,NNE,13,0.0,0.0,68,0.00,,---,0.00,VWS V14.01,2013-01-22 01:52:00,
2013-01-21 19:57:00,44.2,34.3,30.22,NNE,13,0.0,0.0,68,0.00,,---,0.00,VWS V14.01,2013-01-22 01:57:00,
2013-01-21 20:02:00,44.6,34.3,30.22,NNE,13,0.0,0.0,67,0.00,,---,0.00,VWS V14.01,2013-01-22 02:02:00,
2013-01-21 20:07:00,45.2,34.5,30.23,NNE,13,0.0,0.0,66,0.00,,---,0.00,VWS V14.01,2013-01-22 02:07:00,
2013-01-21 20:12:00,45.5,34.0,30.23,NNE,13,0.0,1.0,64,0.00,,---,0.00,VWS V14.01,2013-01-22 02:12:00,
2013-01-21 20:17:00,45.8,34.3,30.23,NNE,13,0.0,1.0,64,0.00,,---,0.00,VWS V14.01,2013-01-22 02:17:00,
2013-01-21 20:22:00,45.9,34.0,30.23,NNE,12,0.0,1.0,63,0.00,,---,0.00,VWS V14.01,2013-01-22 02:22:00,
2013-01-21 20:27:00,46.0,33.7,30.23,NNE,12,0.0,0.0,62,0.00,,---,0.00,VWS V14.01,2013-01-22 02:27:00,
2013-01-21 20:32:00,46.3,33.6,30.24,NNE,12,0.0,0.0,61,0.00,,---,0.00,VWS V14.01,2013-01-22 02:32:00,
2013-01-21 20:37:00,46.1,33.4,30.24,NNE,12,0.0,1.0,61,0.00,,---,0.00,VWS V14.01,2013-01-22 02:37:00,
2013-01-21 20:42:00,46.0,33.7,30.24,NNE,12,0.0,0.0,62,0.00,,---,0.00,VWS V14.01,2013-01-22 02:42:00,
2013-01-21 20:48:00,45.6,33.8,30.24,NNE,12,0.0,0.0,63,0.00,,---,0.00,VWS V14.01,2013-01-22 02:48:00,
2013-01-21 20:53:00,44.9,33.1,30.24,NNE,12,0.0,0.0,63,0.00,,---,0.00,VWS V14.01,2013-01-22 02:53:00,
2013-01-21 20:58:00,44.4,33.0,30.24,NNE,12,0.0,0.0,64,0.00,,---,0.00,VWS V14.01,2013-01-22 02:58:00,
2013-01-21 21:03:00,43.8,33.6,30.24,NNE,12,0.0,0.0,67,0.00,,---,0.00,VWS V14.01,2013-01-22 03:03:00,
2013-01-21 21:08:00,43.0,33.2,30.24,NNE,12,0.0,0.0,68,0.00,,---,0.00,VWS V14.01,2013-01-22 03:08:00,
2013-01-21 21:13:00,42.4,33.3,30.24,NNE,12,0.0,0.0,70,0.00,,---,0.00,VWS V14.01,2013-01-22 03:13:00,
2013-01-21 21:18:00,42.0,32.9,30.24,NNE,12,0.0,0.0,70,0.00,,---,0.00,VWS V14.01,2013-01-22 03:18:00,
2013-01-21 21:23:00,42.1,33.0,30.25,NNE,12,0.0,1.0,70,0.00,,---,0.00,VWS V14.01,2013-01-22 03:23:00,
2013-01-21 21:28:00,42.0,32.9,30.25,NNE,12,0.0,0.0,70,0.00,,---,0.00,VWS V14.01,2013-01-22 03:28:00,
2013-01-21 21:33:00,41.6,32.2,30.25,NNE,12,0.0,0.0,69,0.00,,---,0.00,VWS V14.01,2013-01-22 03:33:00,
2013-01-21 21:38:00,41.2,32.2,30.25,NNE,12,0.0,0.0,70,0.00,,---,0.00,VWS V14.01,2013-01-22 03:38:00,
2013-01-21 21:43:00,40.7,32.0,30.25,NNE,12,0.0,0.0,71,0.00,,---,0.00,VWS V14.01,2013-01-22 03:43:00,
2013-01-21 21:49:00,40.4,31.4,30.25,NNE,12,0.0,0.0,70,0.00,,---,0.00,VWS V14.01,2013-01-22 03:49:00,
2013-01-21 21:54:00,40.2,30.9,30.25,NNE,12,0.0,0.0,69,0.00,,---,0.00,VWS V14.01,2013-01-22 03:54:00,
2013-01-21 21:59:00,40.2,30.9,30.25,NNE,12,0.0,1.0,69,0.00,,---,0.00,VWS V14.01,2013-01-22 03:59:00,
2013-01-21 22:04:00,40.4,30.3,30.25,North,5,1.0,1.0,67,0.00,,---,0.00,VWS V14.01,2013-01-22 04:04:00,
2013-01-21 22:09:00,40.6,30.5,30.26,North,5,0.0,1.0,67,0.00,,---,0.00,VWS V14.01,2013-01-22 04:09:00,
2013-01-21 22:14:00,40.5,30.0,30.26,North,5,0.0,0.0,66,0.00,,---,0.00,VWS V14.01,2013-01-22 04:14:00,
2013-01-21 22:19:00,40.4,30.3,30.26,North,5,0.0,1.0,67,0.00,,---,0.00,VWS V14.01,2013-01-22 04:19:00,
2013-01-21 22:24:00,40.2,30.1,30.26,North,5,0.0,0.0,67,0.00,,---,0.00,VWS V14.01,2013-01-22 04:24:00,
2013-01-21 22:29:00,40.0,29.9,30.26,North,5,0.0,0.0,67,0.00,,---,0.00,VWS V14.01,2013-01-22 04:29:00,
2013-01-21 22:34:00,39.8,29.8,30.26,North,5,0.0,0.0,67,0.00,,---,0.00,VWS V14.01,2013-01-22 04:34:00,
2013-01-21 22:39:00,39.5,29.5,30.26,North,5,0.0,1.0,67,0.00,,---,0.00,VWS V14.01,2013-01-22 04:39:00,
2013-01-21 22:44:00,39.1,29.5,30.26,North,5,0.0,2.0,68,0.00,,---,0.00,VWS V14.01,2013-01-22 04:44:00,
2013-01-21 22:50:00,39.4,29.4,30.26,North,5,0.0,1.0,67,0.00,,---,0.00,VWS V14.01,2013-01-22 04:50:00,
2013-01-21 22:55:00,39.7,29.3,30.26,North,5,0.0,1.0,66,0.00,,---,0.00,VWS V14.01,2013-01-22 04:55:00,
2013-01-21 23:00:00,39.9,29.5,30.26,North,5,1.0,1.0,66,0.00,,---,0.00,VWS V14.01,2013-01-22 05:00:00,
2013-01-21 23:01:00,40.0,29.2,30.26,North,5,0.0,1.0,65,0.00,,---,0.00,VWS V14.01,2013-01-22 05:01:00,
2013-01-21 23:06:00,40.1,28.9,30.26,North,5,0.0,2.0,64,0.00,,---,0.00,VWS V14.01,2013-01-22 05:06:00,
2013-01-21 23:11:00,40.2,29.0,30.26,North,5,0.0,0.0,64,0.00,,---,0.00,VWS V14.01,2013-01-22 05:11:00,
2013-01-21 23:16:00,40.2,28.6,30.26,North,5,0.0,0.0,63,0.00,,---,0.00,VWS V14.01,2013-01-22 05:16:00,
2013-01-21 23:21:00,40.2,28.6,30.26,North,5,0.0,1.0,63,0.00,,---,0.00,VWS V14.01,2013-01-22 05:21:00,
2013-01-21 23:26:00,40.0,28.4,30.26,North,5,0.0,1.0,63,0.00,,---,0.00,VWS V14.01,2013-01-22 05:26:00,
2013-01-21 23:31:00,39.8,28.2,30.26,North,5,0.0,0.0,63,0.00,,---,0.00,VWS V14.01,2013-01-22 05:31:00,
2013-01-21 23:37:00,39.7,28.1,30.26,North,5,0.0,0.0,63,0.00,,---,0.00,VWS V14.01,2013-01-22 05:37:00,
2013-01-21 23:42:00,39.6,28.1,30.26,North,5,0.0,0.0,63,0.00,,---,0.00,VWS V14.01,2013-01-22 05:42:00,
2013-01-21 23:47:00,39.6,28.1,30.26,North,5,0.0,0.0,63,0.00,,---,0.00,VWS V14.01,2013-01-22 05:47:00,
2013-01-21 23:52:00,39.5,28.0,30.26,North,5,0.0,0.0,63,0.00,,---,0.00,VWS V14.01,2013-01-22 05:52:00,
2013-01-21 23:57:00,39.4,27.9,30.26,North,5,1.0,1.0,63,0.00,,---,0.00,VWS V14.01,2013-01-22 05:57:00,